JA0ZJX-13 Weather Reports


time (UTC)temp
F
wind
direction
speed
knots
gust
knots
rain 1hr
in
rain 24hr
in
rain mn
in
humidity
%
barometer
mb
20260509002334 57 31 5.2 13.9 0.00 0.02 0.00 51 1013.4
20260509001328 56 355 7.0 15.6 0.00 0.02 0.00 52 1013.4
20260509000337 56 5 7.8 14.8 0.00 0.02 0.00 53 1013.4
20260508235327 56 19 6.1 17.4 0.00 0.02 0.00 53 1013.2
20260508234337 56 44 8.7 15.6 0.00 0.02 0.00 54 1013.1
20260508233330 56 5 5.2 13.0 0.00 0.02 0.00 56 1012.9
20260508232341 57 20 7.8 14.8 0.00 0.02 0.00 55 1012.7
20260508231330 57 71 6.1 15.6 0.00 0.02 0.00 53 1012.5
20260508230341 57 32 9.6 16.5 0.00 0.02 0.00 51 1012.3
20260508225329 57 360 4.3 12.2 0.00 0.02 0.00 52 1012.0
20260508224338 56 319 1.7 10.4 0.00 0.02 0.00 53 1011.9
20260508223328 56 346 4.3 13.0 0.00 0.02 0.00 54 1011.8
20260508222340 55 330 4.3 12.2 0.00 0.02 0.00 55 1012.7
20260508221328 55 324 4.3 10.4 0.00 0.02 0.00 56 1012.4
20260508220338 55 288 4.3 11.3 0.00 0.02 0.00 55 1012.0
20260508215325 56 338 2.6 5.2 0.00 0.02 0.00 53 1011.7
20260508214338 55 302 1.7 5.2 0.00 0.02 0.00 53 1011.3
20260508213325 55 232 4.3 7.8 0.00 0.02 0.00 54 1011.1
20260508212333 54 222 1.7 9.6 0.00 0.02 0.00 54 1010.7
20260508211326 54 186 3.5 12.2 0.00 0.02 0.00 54 1010.3
20260508210336 53 236 5.2 15.6 0.00 0.02 0.00 54 1010.0
20260508205325 52 211 7.8 15.6 0.00 0.02 0.00 56 1009.7
20260508204335 51 250 8.7 15.6 0.00 0.02 0.00 56 1009.8
20260508203327 51 215 7.0 13.0 0.00 0.02 0.00 56 1009.8
20260508202335 51 206 7.0 17.4 0.00 0.02 0.00 57 1009.6
20260508201342 51 198 7.0 21.7 0.00 0.02 0.00 57 1009.5
20260508200330 50 205 10.4 22.6 0.00 0.02 0.00 57 1009.7
20260508195343 50 207 9.6 14.8 0.00 0.02 0.00 56 1009.7
20260508194333 51 207 4.3 13.0 0.00 0.02 0.00 56 1009.7
20260508193343 51 192 7.8 15.6 0.00 0.02 0.00 54 1009.7
20260508192333 51 200 7.8 13.9 0.00 0.02 0.00 54 1009.7
20260508191324 51 167 6.1 13.9 0.00 0.02 0.00 54 1009.7
20260508190331 51 217 5.2 13.9 0.00 0.02 0.00 53 1009.6
20260508185341 51 120 6.1 13.9 0.00 0.02 0.00 51 1009.3
20260508184334 51 178 7.8 17.4 0.00 0.02 0.00 50 1009.2
20260508183343 51 149 10.4 17.4 0.00 0.02 0.00 50 1009.4
20260508182334 51 219 5.2 17.4 0.00 0.02 0.00 49 1009.3
20260508181343 51 173 7.8 15.6 0.00 0.02 0.00 49 1009.3
20260508180337 51 166 5.2 11.3 0.00 0.02 0.00 49 1009.1
20260508175324 51 218 9.6 15.6 0.00 0.02 0.00 48 1008.8
20260508174333 51 192 6.1 13.9 0.00 0.02 0.00 48 1009.1
20260508173343 51 225 7.0 13.9 0.00 0.02 0.00 46 1008.9
20260508172336 52 199 6.1 14.8 0.00 0.02 0.00 46 1008.9
20260508171326 53 229 7.8 14.8 0.00 0.02 0.00 46 1008.9
20260508170335 52 264 4.3 14.8 0.00 0.02 0.00 47 1009.0
20260508165327 52 184 6.1 20.0 0.00 0.02 0.00 45 1008.9
20260508164335 52 257 10.4 18.2 0.00 0.02 0.00 44 1008.9
20260508163325 52 228 7.0 19.1 0.00 0.02 0.00 44 1008.7
20260508162335 52 229 11.3 19.1 0.00 0.02 0.00 44 1008.9
20260508161328 52 277 7.8 14.8 0.00 0.02 0.00 44 1009.2
20260508160339 52 292 10.4 16.5 0.00 0.02 0.00 42 1009.0
20260508155328 52 213 8.7 15.6 0.00 0.02 0.00 42 1009.0
20260508154335 52 223 7.0 15.6 0.00 0.02 0.00 42 1009.3
20260508153327 52 221 6.1 15.6 0.00 0.02 0.00 43 1009.4
20260508152335 52 235 5.2 14.8 0.00 0.02 0.00 42 1009.4
20260508151324 53 221 7.0 13.9 0.00 0.02 0.00 41 1009.4
20260508150332 53 209 6.1 12.2 0.00 0.02 0.00 39 1009.6
20260508145342 53 237 6.1 16.5 0.00 0.02 0.02 40 1009.7
20260508144330 53 194 7.8 13.9 0.00 0.02 0.02 40 1009.6
20260508143338 53 200 2.6 10.4 0.00 0.02 0.02 41 1009.8
20260508142332 54 263 3.5 11.3 0.00 0.02 0.02 45 1009.6
20260508141339 54 267 5.2 14.8 0.00 0.02 0.02 47 1009.2
20260508140329 55 254 7.0 15.6 0.00 0.02 0.02 50 1009.1
20260508135336 56 269 10.4 23.5 0.00 0.02 0.02 53 1008.9
20260508134329 56 288 8.7 18.2 0.00 0.02 0.02 56 1008.5
20260508133338 57 294 7.0 17.4 0.00 0.02 0.02 57 1008.3
20260508132328 57 78 11.3 17.4 0.00 0.02 0.02 58 1007.8
20260508131338 57 9 4.3 12.2 0.00 0.02 0.02 59 1007.9
20260508130332 57 10 2.6 14.8 0.00 0.02 0.02 59 1007.8
20260508125341 57 265 6.1 19.1 0.00 0.02 0.02 60 1008.1
20260508124328 57 282 7.0 17.4 0.00 0.02 0.02 63 1007.8
20260508123337 58 318 11.3 17.4 0.00 0.02 0.02 62 1007.4
20260508122329 58 321 6.1 15.6 0.00 0.02 0.02 64 1007.4
20260508121338 59 245 8.7 20.9 0.00 0.02 0.02 64 1007.1
20260508120327 60 277 10.4 14.8 0.00 0.02 0.02 62 1007.1
20260508115338 60 278 6.1 10.4 0.00 0.02 0.02 60 1006.5
20260508114328 61 299 8.7 14.8 0.00 0.02 0.02 61 1006.6
20260508113337 61 285 4.3 10.4 0.00 0.02 0.02 61 1006.7
20260508112327 62 286 6.1 11.3 0.00 0.02 0.02 61 1006.4
20260508111340 62 296 2.6 8.7 0.00 0.02 0.02 61 1006.3
20260508110329 62 215 3.5 13.0 0.00 0.02 0.02 62 1006.1
20260508105339 62 221 2.6 9.6 0.00 0.02 0.02 63 1005.9
20260508104327 63 213 2.6 17.4 0.00 0.02 0.02 62 1005.6
20260508103338 62 224 7.0 9.6 0.00 0.02 0.02 63 1005.2
20260508102327 63 253 3.5 11.3 0.00 0.02 0.02 67 1005.0
20260508101334 63 246 5.2 9.6 0.00 0.02 0.02 67 1004.8
20260508100327 63 235 4.3 8.7 0.01 0.02 0.02 69 1005.4
20260508095335 63 203 3.5 9.6 0.01 0.02 0.02 70 1005.4
20260508094342 62 187 5.2 11.3 0.01 0.02 0.02 70 1005.3
20260508093330 63 199 7.0 17.4 0.01 0.02 0.02 70 1005.5
20260508092341 63 222 5.2 10.4 0.01 0.02 0.02 73 1005.5
20260508091330 63 285 3.5 6.1 0.01 0.02 0.02 73 1005.1
20260508090339 64 206 5.2 13.9 0.00 0.01 0.01 70 1005.0
20260508085328 65 226 5.2 17.4 0.00 0.01 0.01 65 1004.7
20260508084342 67 211 9.6 21.7 0.00 0.01 0.01 63 1004.5
20260508083330 66 200 8.7 14.8 0.00 0.01 0.01 65 1004.0
20260508082339 66 309 1.7 5.2 0.00 0.01 0.01 73 1004.0
20260508081328 66 283 1.7 6.1 0.00 0.01 0.01 71 1004.2
20260508080341 66 226 0.9 4.3 0.01 0.01 0.01 73 1004.2
20260508075331 65 267 0.9 4.3 0.01 0.01 0.01 74 1004.3
20260508074340 64 246 2.6 4.3 0.01 0.01 0.01 72 1004.5
20260508073333 65 275 1.7 8.7 0.01 0.01 0.01 71 1004.6
20260508072341 67 250 2.6 8.7 0.01 0.01 0.01 66 1004.9
20260508071329 68 216 4.3 18.2 0.01 0.01 0.01 63 1004.8
20260508070338 70 145 7.0 13.0 0.00 0.00 0.00 54 1004.6
20260508065331 71 192 8.7 17.4 0.00 0.00 0.00 49 1004.5
20260508064339 71 205 10.4 17.4 0.00 0.00 0.00 49 1004.4
20260508063327 71 211 5.2 20.0 0.00 0.00 0.00 50 1004.2
20260508062337 71 232 10.4 20.9 0.00 0.00 0.00 49 1004.3
20260508061328 72 213 10.4 20.0 0.00 0.00 0.00 50 1004.1
20260508060338 72 222 9.6 21.7 0.00 0.00 0.00 49 1004.2
20260508055328 72 232 6.1 20.0 0.00 0.00 0.00 46 1004.0
20260508054338 72 219 12.2 22.6 0.00 0.00 0.00 45 1003.9
20260508053330 72 162 7.8 20.9 0.00 0.00 0.00 47 1003.7
20260508052340 72 142 9.6 19.1 0.00 0.00 0.00 49 1004.3
20260508051328 72 209 9.6 20.9 0.00 0.00 0.00 52 1004.9
20260508050339 72 193 8.7 18.2 0.00 0.00 0.00 53 1005.1
20260508045330 73 171 7.8 17.4 0.00 0.00 0.00 54 1005.0
20260508044339 73 232 6.1 20.9 0.00 0.00 0.00 55 1005.3
20260508043327 72 172 9.6 20.0 0.00 0.00 0.00 55 1005.1
20260508042340 73 146 9.6 15.6 0.00 0.00 0.00 55 1005.3
20260508041330 73 180 6.1 18.2 0.00 0.00 0.00 55 1005.4
20260508040339 73 214 8.7 18.2 0.00 0.00 0.00 54 1005.3
20260508035328 73 195 12.2 21.7 0.00 0.00 0.00 54 1005.3
20260508034342 73 130 11.3 20.0 0.00 0.00 0.00 55 1005.5
20260508033332 73 177 8.7 18.2 0.00 0.00 0.00 54 1005.5
20260508032342 73 226 8.7 18.2 0.00 0.00 0.00 53 1005.7
20260508031334 73 190 9.6 17.4 0.00 0.00 0.00 54 1005.8
20260508030344 73 221 8.7 13.0 0.00 0.00 0.00 55 1005.8
20260508025333 73 186 5.2 13.9 0.00 0.00 0.00 57 1005.8
20260508024342 72 165 7.8 14.8 0.00 0.00 0.00 57 1005.9
20260508023334 72 165 7.0 13.9 0.00 0.00 0.00 57 1006.2
20260508022343 72 162 7.8 20.9 0.00 0.00 0.00 59 1006.4
20260508021331 72 202 8.7 20.0 0.00 0.00 0.00 58 1006.6
20260508020339 72 195 7.8 16.5 0.00 0.00 0.00 58 1006.5
20260508015330 72 241 9.6 20.0 0.00 0.00 0.00 58 1006.8
20260508014339 72 240 13.0 20.0 0.00 0.00 0.00 59 1007.1
20260508013327 72 209 8.7 18.2 0.00 0.00 0.00 64 1007.1
20260508012337 71 149 7.0 15.6 0.00 0.00 0.00 66 1007.0
20260508011331 69 220 7.8 14.8 0.00 0.00 0.00 68 1007.5
20260508010338 69 200 6.1 15.6 0.00 0.00 0.00 67 1007.5
20260508005325 68 146 6.1 15.6 0.00 0.00 0.00 70 1007.8
20260508004339 68 148 9.6 14.8 0.00 0.00 0.00 70 1007.8
20260508003328 67 184 8.7 17.4 0.00 0.00 0.00 71 1008.1